Argana, Spain

9:02 AM WEST on July 21, 2019 (GMT +0100)
Argana

Weather History for 60040 - May, 2015

Change the Weather History Date:

Wednesday, May 13, 2015

  Actual Average Record
Temperature  
Mean Temperature 90 °F -  
Max Temperature 108 °F 75 °F - ()
Min Temperature 72 °F 63 °F - ()
Cooling Degree Days 25    
Growing Degree Days 40 (Base 50)    
Moisture  
Dew Point 53 °F    
Average Humidity 36    
Maximum Humidity 83    
Minimum Humidity 4    
Precipitation  
Precipitation 0.00 in 0.00 in - ()
Sea Level Pressure  
Sea Level Pressure 29.98 in    
Wind  
Wind Speed 12 mph ()    
Max Wind Speed 36 mph    
Max Gust Speed 47 mph    
Visibility 7.0 miles    
Events      
T = Trace of Precipitation, MM = Missing Value Source: Averaged Metar Reports

Daily Weather History Graph

Daily Weather History Graph

Search for Another Location

Airport or City:

Astronomy

May. 13, 2015 Rise Set
Actual Time 7:04 AM WEST 8:37 PM WEST
Civil Twilight 6:38 AM WEST 9:03 PM WEST
Nautical Twilight 6:08 AM WEST 9:33 PM WEST
Astronomical Twilight 5:35 AM WEST 10:06 PM WEST
Moon 3:40 AM WEST (5/13) 3:51 PM WEST (5/13)
Length of Visible Light 14h 24m
Length of Day
13h 32m
Waning Crescent, 28% of the Moon is Illuminated
May 13
Waning Crescent
May 18
New
May 25
First Quarter
Jun 2
Full
Jun 9
Last Quarter

Hourly Weather History & Observations

Time (WEST) Temp. Heat Index Dew Point Humidity Pressure Visibility Wind Dir Wind Speed Gust Speed Precip Events Conditions
12:00 AM 74 °F - 65 °F 67% 30.00 in - SW 5.8 mph - -  
12:00 AM 73.4 °F - 66.2 °F 78% 29.98 in - WSW 3.5 mph 15.0 mph N/A   Clear
12:30 AM 73.4 °F - 68.0 °F 83% 30.01 in - Variable 4.6 mph - N/A   Clear
1:00 AM 76 °F - 56 °F 39% 30.02 in 7 mi NE 11.5 mph - -   Clear
1:00 AM 75.2 °F - 62.6 °F 65% 30.01 in - NE 9.2 mph - N/A   Clear
2:00 AM 77 °F - 58 °F 42% 30.04 in - NE 10.4 mph - -  
3:00 AM 78 °F - 53 °F 31% 30.01 in - NNE 9.2 mph - -  
4:00 AM 80 °F - 44 °F 18% 29.99 in - NNE 6.9 mph - -  
5:00 AM 79 °F - 39 °F 14% 29.99 in - NE 3.5 mph - -  
6:00 AM 78 °F - 36 °F 13% 29.99 in - NE 4.6 mph - -  
6:00 AM 77.0 °F - 39.2 °F 26% 29.98 in - NE 6.9 mph - N/A   Clear
6:30 AM 80.6 °F - 42.8 °F 26% 29.98 in - NE 6.9 mph - N/A   Clear
7:00 AM 86 °F - 29 °F 6% 29.98 in 7 mi NNE 13.8 mph - -   Clear
7:00 AM 80.6 °F - 44.6 °F 28% 29.98 in - NE 9.2 mph - N/A   Clear
7:30 AM 82.4 °F - 44.6 °F 26% 29.98 in - NE 13.8 mph - N/A   Clear
8:00 AM 89 °F - 28 °F 5% 29.98 in - NNE 15.0 mph - -  
8:00 AM 84.2 °F - 44.6 °F 25% 29.98 in - NE 16.1 mph - N/A   Clear
8:30 AM 86.0 °F - 46.4 °F 25% 29.98 in - NE 13.8 mph - N/A   Clear
9:00 AM 95 °F - 30 °F 4% 30.00 in - NE 11.5 mph - -  
9:00 AM 78.8 °F - 62.6 °F 57% 30.01 in - ENE 10.4 mph - N/A   Clear
9:30 AM 78.8 °F - 60.8 °F 54% 30.01 in - East 15.0 mph - N/A   Clear
10:00 AM 96 °F - 33 °F 5% 30.02 in 7 mi NE 13.8 mph - -  
10:00 AM 84.2 °F 82.8 °F 53.6 °F 35% 30.01 in - ENE 13.8 mph - N/A   Clear
10:30 AM 89.6 °F 87.3 °F 53.6 °F 29% 30.01 in - NE 16.1 mph - N/A   Clear
11:00 AM 100 °F - 36 °F 5% 30.02 in - NE 13.8 mph - -   Unknown Precipitation
11:00 AM 86.0 °F 84.5 °F 55.4 °F 35% 30.01 in - ENE 16.1 mph - N/A   Clear
11:30 AM 84.2 °F 82.8 °F 53.6 °F 35% 30.01 in - ENE 16.1 mph - N/A   Clear
12:00 PM 100 °F - 36 °F 5% 30.02 in - NE 15.0 mph - -  
12:00 PM 84.2 °F 83.5 °F 57.2 °F 40% 30.01 in - ENE 15.0 mph - N/A   Clear
12:30 PM 82.4 °F 82.9 °F 60.8 °F 48% 30.01 in - ENE 12.7 mph - N/A   Clear
1:00 PM 102 °F - 35 °F 5% 30.01 in 7 mi NE 13.8 mph - -   Clear
1:00 PM 84.2 °F 83.8 °F 59.0 °F 42% 30.01 in - ENE 15.0 mph - N/A   Clear
2:00 PM 105 °F - 32 °F 4% 29.99 in - ENE 12.7 mph - -  
2:00 PM 87.8 °F 85.7 °F 53.6 °F 31% 29.98 in - ENE 15.0 mph - N/A   Clear
2:30 PM 84.2 °F 84.4 °F 60.8 °F 45% 29.98 in - ENE 16.1 mph - N/A   Clear
3:00 PM 106 °F - 40 °F 5% 29.97 in - ENE 9.2 mph - -  
3:00 PM 84.2 °F 85.6 °F 64.4 °F 51% 29.98 in - East 16.1 mph - N/A   Clear
3:30 PM 84.2 °F 85.6 °F 64.4 °F 51% 29.98 in - ENE 15.0 mph - N/A   Clear
4:00 PM 106 °F - 36 °F 4% 29.96 in 7 mi East 10.4 mph - -   Clear
4:00 PM 82.4 °F 84.6 °F 66.2 °F 58% 29.95 in - East 17.3 mph - N/A   Clear
5:00 PM 107 °F - 33 °F 4% 29.94 in - NE 12.7 mph - -  
5:00 PM 82.4 °F 84.6 °F 66.2 °F 58% 29.95 in - ENE 15.0 mph - N/A   Clear
5:30 PM 91.4 °F - 46.4 °F 21% 29.92 in - ENE 11.5 mph - N/A   Clear
6:00 PM 95 °F - 59 °F 21% 29.93 in - NNW 23.0 mph - -  
6:00 PM 98.6 °F 97.6 °F 57.2 °F 25% 29.92 in - North 18.4 mph - N/A   Clear
6:30 PM 89.6 °F 88.9 °F 59.0 °F 36% 29.92 in - North 23.0 mph - N/A   Clear
7:00 PM 84 °F - 62 °F 37% 29.92 in 7 mi NNW 26.5 mph - -  
7:00 PM 87.8 °F 87.1 °F 59.0 °F 38% 29.92 in - North 23.0 mph - N/A   Clear
7:30 PM 84.2 °F 85.0 °F 62.6 °F 48% 29.92 in - North 25.3 mph - N/A   Clear
8:00 PM 79 °F - 63 °F 48% 29.93 in - NNW 33.4 mph - -  
8:00 PM 80.6 °F 81.5 °F 60.8 °F 51% 29.92 in - North 27.6 mph - N/A   Clear
8:30 PM 80.6 °F 81.5 °F 60.8 °F 51% 29.92 in - NNW 32.2 mph - N/A   Clear
9:00 PM 76 °F - 64 °F 57% 29.94 in - NNW 35.7 mph - -  
9:00 PM 78.8 °F - 60.8 °F 54% 29.92 in - North 33.4 mph 44.9 mph N/A   Clear
9:30 PM 77.0 °F - 62.6 °F 61% 29.95 in - NNW 35.7 mph 47.2 mph N/A   Clear
10:00 PM 76 °F - 62 °F 52% 29.94 in 7 mi NNW 32.2 mph - -   Clear
10:00 PM 77.0 °F - 60.8 °F 57% 29.95 in - NNW 32.2 mph - N/A   Clear
10:30 PM 77.0 °F - 60.8 °F 57% 29.95 in - NNW 33.4 mph 46.0 mph N/A   Clear
11:00 PM 75 °F - 62 °F 54% 29.98 in - North 25.3 mph - -  
11:00 PM 75.2 °F - 60.8 °F 61% 29.98 in - North 28.8 mph 41.4 mph N/A   Clear
11:30 PM 75.2 °F - 62.6 °F 65% 29.98 in - NNE 19.6 mph - N/A   Clear